Temperature
23 23 22 22 25 26 28 29 30 29 29 28 28 27 26 25 24 22 21 21 20 20 20 20 20 19 19 19 19 19 19 19 19 19 19 18 18 18 18 18 18 18 18 18 18 18 18 18 18
23 22 23 25 27 27 28 29 29 29 29 28 27 27 26 24 23 22 21 21 20 20 20 20 20 19 19 19 19 19 19 19 19 19 19 18 18 18 18 18 18 18 18 18 18 18 18 18 18
23 23 25 27 28 28 28 29 29 29 29 28 27 26 25 24 23 22 21 21 21 20 20 20 20 19 19 19 19 19 19 19 19 19 19 19 18 18 18 18 18 18 18 18 18 18 18 18 18
23 25 27 29 29 29 29 29 30 30 29 28 27 26 24 23 22 22 21 21 21 20 20 20 20 19 19 19 19 19 19 19 19 19 19 19 19 19 18 18 18 18 18 18 18 18 18 18 18
24 27 28 29 29 30 30 30 30 30 29 28 27 25 23 23 22 22 22 21 21 20 20 20 20 19 19 19 19 19 19 19 19 19 19 19 19 19 18 18 18 18 18 18 18 18 18 18 18
27 29 28 29 29 30 31 30 30 30 29 28 27 25 23 23 22 22 22 21 21 20 20 20 20 20 19 19 19 19 19 19 19 19 19 19 19 19 19 19 18 18 18 18 18 18 18 18 18
28 29 29 30 30 30 31 30 30 30 29 28 27 25 23 23 22 22 22 22 21 21 20 20 20 20 20 19 19 19 19 19 19 19 19 19 19 19 19 19 18 18 18 18 18 18 18 18 18
30 30 30 30 30 30 31 30 30 29 28 27 27 26 24 23 22 22 22 22 21 21 20 20 20 20 19 19 19 19 19 19 19 19 19 19 19 19 19 18 18 18 18 18 18 18 18 18 18
31 30 30 31 30 30 31 31 29 29 28 27 26 25 24 23 23 22 22 22 21 21 21 20 20 20 19 19 19 19 19 19 19 19 19 18 18 18 18 18 18 18 18 18 18 18 18 18 18
32 30 31 32 32 32 31 31 30 29 28 27 26 25 24 23 23 22 22 21 21 21 21 20 20 20 19 19 19 19 19 19 19 18 18 18 18 18 18 18 18 18 18 18 18 18 18 18 18
33 32 32 32 32 32 31 31 30 30 29 27 26 25 24 24 23 23 22 21 21 21 20 20 20 20 20 19 19 19 19 19 19 18 18 18 18 18 18 18 18 18 18 18 18 18 18 18 18
33 33 33 33 32 32 31 31 30 29 28 27 26 25 24 24 23 23 22 21 21 21 20 20 20 19 19 19 19 19 19 19 19 19 18 18 18 18 18 18 18 18 18 18 18 18 18 18 18
33 33 33 32 32 31 31 31 30 29 28 27 26 25 25 24 23 23 22 22 21 20 20 20 20 19 19 19 19 19 19 19 19 19 18 18 18 18 18 18 18 18 18 18 18 18 18 18 18
33 33 33 32 32 32 32 31 30 29 28 27 26 25 25 24 24 23 22 22 21 21 20 20 20 19 19 19 19 19 19 19 19 18 18 18 18 18 18 18 18 18 18 18 18 18 18 18 18
33 33 33 33 32 32 31 31 30 29 28 27 27 26 25 25 24 23 22 22 21 20 20 20 19 19 19 19 19 19 19 19 19 19 18 18 18 18 18 18 18 18 18 18 18 18 18 18 18
33 32 31 32 33 32 31 29 30 30 29 28 27 26 26 25 24 23 22 22 21 21 20 20 20 19 19 19 19 19 19 19 19 19 18 18 18 18 18 18 18 18 18 18 18 18 18 18 18
32 31 31 32 33 33 32 30 30 30 29 28 28 27 26 25 24 24 23 22 21 21 20 20 20 19 19 19 19 19 19 19 19 19 18 18 18 18 18 18 18 18 18 18 18 18 18 18 18
32 32 32 32 33 33 32 31 31 31 30 29 28 27 26 25 25 24 23 22 22 21 20 20 20 19 19 19 19 19 19 19 19 19 18 18 18 18 18 18 18 18 18 18 18 18 18 18 18
33 33 32 32 34 33 32 32 31 31 30 30 29 28 27 26 25 24 23 23 22 21 20 20 20 19 19 19 19 19 19 19 19 19 19 18 18 18 18 18 18 18 18 18 18 18 18 18 18
33 33 33 33 34 33 32 31 31 31 31 30 29 28 27 26 25 24 24 23 22 21 20 20 20 20 19 19 19 19 19 19 19 19 19 19 19 19 18 19 18 18 18 18 18 18 18 18 18
33 33 33 33 33 33 32 30 31 31 31 30 30 29 28 27 26 25 24 23 22 21 21 20 20 20 20 19 19 19 19 19 19 19 19 19 19 19 19 19 18 18 18 18 18 18 18 18 18
33 34 34 33 32 32 32 29 29 31 30 31 30 29 29 28 26 25 24 23 23 22 21 21 20 20 20 20 20 19 19 19 19 19 19 19 19 19 19 19 19 19 19 18 18 18 18 18 18
33 34 33 33 32 31 32 30 30 31 30 30 30 29 28 28 27 25 24 23 23 22 22 21 21 20 20 20 20 20 19 19 19 19 19 19 19 19 19 19 19 19 19 18 18 18 18 18 18
34 34 33 32 32 30 32 31 30 31 30 30 30 30 29 28 27 26 25 24 23 23 22 21 21 21 20 20 20 20 20 19 19 19 19 19 19 19 19 19 19 19 18 18 18 18 18 18 18
34 31 29 29 30 30 32 31 30 32 32 31 30 29 29 28 27 26 25 24 23 23 22 22 21 21 20 20 20 20 20 20 20 19 19 19 19 19 19 19 19 19 18 18 18 18 18 18 18
32 31 29 28 29 30 31 31 31 33 32 31 30 29 29 28 27 26 25 24 24 23 22 22 21 21 21 20 20 20 20 20 19 19 19 19 19 19 19 19 19 18 18 18 18 18 18 18 18
32 31 32 30 30 30 31 31 31 32 32 32 31 30 29 29 28 27 26 25 24 23 22 22 21 21 21 20 20 20 20 20 19 19 19 19 19 19 19 19 18 18 18 18 18 18 18 17 17
33 32 31 30 29 29 29 30 30 31 31 32 31 30 29 29 28 27 26 25 24 24 23 22 22 21 21 21 20 20 20 20 20 19 19 19 19 19 19 18 18 18 18 18 18 18 17 17 17
33 32 31 31 30 29 28 29 32 31 32 31 31 30 29 28 28 27 26 25 24 24 23 22 21 21 21 21 20 20 20 20 20 19 19 19 19 19 18 18 18 18 18 18 18 17 17 17 17
33 32 31 30 29 29 29 29 31 31 32 31 30 29 29 28 27 27 26 25 24 24 23 22 22 21 21 21 20 20 20 20 20 19 19 19 19 18 18 18 18 18 18 18 17 17 17 17 17
Wind_Speed
9 10 9 5 4 0 11 12 13 14 13 13 13 12 16 14 10 8 5 7 9 10 11 12 11 11 11 10 9 9 8 8 8 8 8 8 8 9 10 11 11 11 11 11 11 11 11 11 10
9 10 8 4 1 7 12 12 13 13 12 11 14 15 16 15 12 9 7 7 9 10 12 12 12 12 11 11 10 9 9 9 8 8 8 8 8 9 9 10 10 10 10 10 11 11 11 10 10
11 12 6 1 6 11 12 11 11 12 12 12 13 15 12 10 11 8 7 7 10 12 14 13 13 12 12 12 11 11 10 9 9 8 8 8 8 8 9 10 10 10 10 10 10 10 10 9 9
7 6 3 3 11 13 12 9 10 12 11 12 12 11 12 11 9 9 8 9 11 12 13 13 13 13 12 12 12 12 11 10 10 9 8 7 7 8 9 9 9 9 9 9 9 9 8 8 8
7 4 1 7 12 11 10 9 11 12 12 14 15 14 13 12 12 11 9 9 11 12 12 13 13 13 13 12 12 12 11 11 10 10 9 7 7 8 9 9 9 9 8 8 8 7 7 7 7
4 2 1 9 11 11 10 9 11 12 12 13 14 14 11 10 10 10 10 9 10 11 12 13 13 13 13 13 13 12 11 11 10 10 9 8 8 9 10 9 9 8 7 7 7 6 6 6 7
4 3 3 10 11 11 11 11 11 11 12 11 11 12 9 9 9 9 9 9 10 10 10 10 12 12 12 13 12 11 11 10 9 9 9 9 10 10 10 9 9 8 7 7 6 6 5 5 7
4 1 5 8 10 10 10 11 11 12 12 10 9 9 9 9 9 9 9 10 9 9 9 9 10 10 10 11 11 11 10 10 9 8 7 8 9 10 10 10 9 8 7 6 7 5 5 5 7
3 1 5 8 9 9 10 12 11 11 12 12 12 14 13 12 10 9 9 9 8 9 8 8 8 7 8 9 10 9 9 8 7 6 6 6 5 7 8 9 9 8 7 6 6 6 6 6 7
1 3 7 8 9 10 10 10 10 10 11 12 14 15 13 11 11 9 8 9 9 8 8 8 7 6 7 8 7 6 7 6 5 5 4 3 3 5 9 10 9 7 6 6 6 6 4 4 5
3 5 6 7 8 9 9 9 9 9 11 11 14 14 12 11 10 9 8 9 8 6 7 8 7 7 7 5 5 4 5 4 5 5 5 4 4 5 7 6 6 5 5 4 5 5 3 2 3
4 5 5 7 8 9 8 8 10 11 12 12 14 13 11 10 10 9 9 9 8 6 7 8 8 8 6 5 4 4 4 3 4 5 5 4 3 4 4 3 3 4 3 3 3 2 3 3 3
4 6 6 7 7 8 8 9 10 12 13 14 14 12 10 10 10 9 9 9 8 7 8 8 7 7 5 4 3 4 4 5 6 5 5 5 4 4 4 3 2 3 3 3 2 2 3 2 1
2 5 6 6 6 7 7 8 11 11 13 13 12 11 9 10 10 9 8 8 8 8 8 7 8 7 5 4 3 3 4 5 5 5 6 6 5 4 3 3 2 2 3 3 2 2 2 2 1
1 3 5 5 5 7 6 6 9 12 13 12 11 10 10 9 9 9 8 7 9 8 7 6 7 7 5 3 2 3 3 4 4 5 6 6 6 4 2 3 2 2 2 3 2 2 1 1 1
5 4 3 4 5 7 5 5 8 12 12 12 11 10 9 9 9 9 9 8 8 8 7 5 6 7 4 2 1 2 3 3 4 5 5 5 4 3 2 2 2 1 1 1 1 1 1 1 1
6 5 5 5 5 6 6 7 9 11 12 12 11 10 10 9 9 9 10 10 9 8 7 5 4 6 4 3 2 2 3 3 3 4 4 4 3 3 2 2 1 1 1 1 2 3 2 1 1
3 2 3 4 5 4 6 8 11 11 11 12 12 11 11 11 10 10 10 11 10 9 7 6 5 4 3 3 2 1 2 2 3 3 3 4 2 2 2 1 1 1 2 2 2 2 1 0 0
5 4 2 1 3 3 3 7 10 9 8 11 12 12 11 11 12 11 10 11 10 9 8 6 5 4 2 2 2 2 2 2 3 3 4 3 2 1 2 1 1 1 1 2 2 1 1 0 1
5 5 2 2 2 3 2 4 7 11 10 9 12 13 12 12 12 11 10 10 10 9 8 6 6 5 3 2 1 1 2 2 3 2 4 3 2 2 2 1 1 1 1 1 1 1 1 1 0
7 5 4 3 3 4 3 2 5 9 8 8 10 12 13 14 14 13 11 10 10 10 9 7 6 5 4 3 2 2 1 1 2 2 3 2 2 2 2 1 1 1 0 0 1 1 2 2 2
7 5 6 5 5 4 5 3 6 9 8 7 8 10 10 13 14 13 12 11 10 10 10 8 7 6 5 4 3 3 3 2 2 2 3 2 2 2 2 1 1 1 1 1 2 1 2 2 2
7 7 7 8 7 6 6 3 5 8 7 8 8 9 9 11 13 13 13 12 10 10 10 9 7 6 5 4 3 2 2 2 2 2 3 2 2 2 1 2 1 0 1 1 2 2 3 2 3
7 8 8 9 8 8 6 4 3 5 8 8 8 9 10 10 11 13 13 11 10 10 10 10 8 6 6 5 4 3 2 1 0 0 1 2 2 2 2 2 1 0 1 1 1 2 2 2 3
7 5 5 7 6 6 5 3 1 5 8 8 9 9 10 10 10 11 12 12 10 10 9 9 9 7 6 6 4 3 2 1 1 2 2 1 1 2 1 1 1 1 1 1 1 1 2 2 3
8 7 6 7 6 5 5 2 3 4 8 10 11 10 10 10 10 11 13 12 11 10 9 10 9 8 7 6 4 3 3 2 2 2 1 1 0 1 2 1 1 0 1 1 1 1 1 1 2
8 8 8 9 10 7 3 3 5 6 7 8 9 10 9 9 10 10 12 12 11 10 9 10 10 8 7 6 5 4 3 2 1 1 1 1 1 1 2 1 1 1 0 1 1 1 2 2 2
9 7 6 7 6 7 5 4 3 7 7 7 7 7 8 7 8 9 8 9 10 10 9 9 9 8 6 5 4 5 4 3 2 1 1 1 0 1 1 0 0 1 1 1 1 2 1 2 2
8 8 6 6 5 6 6 2 2 5 7 7 7 7 7 6 6 8 9 8 8 9 9 9 8 8 7 6 5 4 4 4 3 3 2 1 1 1 1 1 1 1 1 1 1 2 2 2 2
9 8 7 7 5 5 6 3 2 2 5 7 8 7 6 5 5 6 8 8 7 8 8 8 7 7 7 6 5 4 4 4 4 3 3 2 2 2 1 1 1 2 1 1 1 2 2 2 2
Wind_Direction
197 212 218 236 247 122 60 56 60 60 59 58 52 59 59 52 58 82 90 81 88 90 89 82 72 73 72 71 74 82 88 91 93 97 100 102 108 111 114 118 122 123 125 127 130 130 128 125 125
215 220 225 248 298 62 64 59 63 64 69 71 65 65 67 64 72 91 89 85 90 91 88 81 77 76 75 73 73 78 85 90 94 100 105 107 112 117 119 118 119 120 122 126 131 132 131 129 129
245 246 255 255 53 62 68 64 72 72 70 73 71 62 59 69 72 84 98 100 93 88 88 88 82 81 79 76 75 76 79 85 91 100 106 110 116 118 120 122 123 124 125 126 130 133 134 135 136
253 245 244 63 65 68 72 73 80 80 75 72 76 73 64 69 85 93 94 90 90 90 92 93 89 87 83 80 79 77 78 82 87 96 104 110 119 126 127 126 125 127 128 128 133 137 140 144 147
248 271 240 80 71 73 78 76 76 77 75 77 81 84 76 75 93 100 95 87 85 90 97 100 96 94 89 84 82 79 79 83 86 93 97 104 125 135 135 132 133 132 130 133 138 145 149 152 156
259 282 49 84 82 81 79 78 76 79 83 87 91 91 84 87 93 93 90 86 88 93 101 108 103 99 94 89 87 82 82 85 88 93 94 95 107 127 127 130 133 135 138 142 144 146 148 162 168
257 305 58 87 93 85 77 72 73 77 75 76 91 94 96 93 92 90 91 87 87 89 100 112 115 112 103 98 94 90 88 89 91 95 98 103 111 114 119 123 126 133 137 140 144 145 158 174 176
249 335 57 76 88 86 88 82 75 79 77 79 81 96 109 113 109 101 91 84 86 88 92 98 106 115 117 110 105 102 100 98 97 98 104 109 119 123 126 126 127 134 137 142 145 152 151 160 168
275 31 60 71 90 100 100 97 93 90 86 77 76 90 111 122 117 104 97 88 83 83 83 84 87 98 102 102 104 114 114 106 106 108 119 127 127 128 136 119 131 134 141 150 152 155 160 165 171
116 78 68 72 91 102 99 97 107 105 96 93 93 98 112 118 112 104 98 91 79 79 83 82 79 81 90 92 106 114 108 113 106 99 118 132 107 102 107 121 133 138 143 155 157 160 168 186 174
91 88 92 86 93 95 96 94 92 94 99 108 114 118 122 118 114 109 103 96 89 90 83 80 79 62 64 80 104 107 101 113 103 95 88 85 86 95 100 124 137 137 132 141 139 156 164 143 131
105 92 92 87 91 97 96 92 86 85 98 110 117 124 126 122 116 112 107 103 103 95 83 77 74 68 54 60 71 89 93 94 88 84 84 89 77 70 77 88 111 123 118 124 120 141 113 92 99
110 114 108 106 102 104 108 105 101 101 107 111 117 124 127 124 120 117 113 111 111 106 94 92 81 74 60 43 35 73 80 88 89 91 79 81 78 68 68 66 70 75 90 104 94 90 96 90 94
111 123 120 120 127 124 117 119 114 116 120 123 128 134 137 127 124 120 115 116 119 111 101 96 93 86 74 58 38 53 75 80 83 81 77 76 83 81 74 71 50 62 76 87 87 92 113 122 112
172 152 152 158 157 137 125 115 123 132 134 135 139 143 138 134 131 126 122 123 120 114 109 109 110 97 83 69 45 71 68 81 92 95 86 81 88 100 106 89 63 52 75 86 90 69 70 107 109
211 210 187 176 180 155 155 123 139 148 147 145 147 145 142 138 139 134 133 131 123 119 118 114 110 108 103 91 59 67 81 85 92 99 95 89 87 81 73 97 93 88 87 81 73 64 38 62 66
228 221 190 183 195 179 153 138 159 168 155 151 154 154 153 151 150 143 144 141 132 127 127 119 102 112 117 118 110 94 84 82 100 105 109 102 90 82 71 70 78 86 57 42 50 61 29 42 73
263 250 193 172 182 177 145 150 164 169 165 160 163 161 162 162 159 155 150 142 138 134 130 125 124 120 144 138 127 125 110 121 119 111 105 107 99 90 105 106 69 58 52 49 46 48 357 337 245
281 312 342 230 171 152 149 152 157 160 176 169 165 165 169 164 159 157 154 148 145 140 139 144 137 137 162 147 149 142 139 153 135 135 125 124 118 92 105 47 71 95 65 52 17 12 291 241 183
277 290 280 225 166 164 149 135 157 163 179 186 172 168 168 163 157 157 158 157 152 147 147 149 150 158 172 135 134 162 157 157 135 117 128 144 153 166 135 117 16 99 128 84 289 315 314 299 271
266 268 275 264 228 190 172 191 185 176 175 181 178 171 169 169 165 163 165 165 159 157 160 167 163 160 168 158 171 157 154 135 122 143 146 153 163 133 70 61 40 356 56 350 305 333 300 293 290
270 285 278 269 258 235 218 206 192 176 170 182 178 169 169 168 166 168 170 170 169 166 164 155 158 160 162 174 192 187 175 165 169 163 136 163 166 153 153 135 80 353 21 358 305 30 310 285 291
277 283 286 283 275 265 233 212 184 162 162 179 187 169 163 167 168 169 172 171 174 169 163 157 155 157 163 184 193 204 209 182 167 149 142 173 166 162 160 141 147 349 13 2 17 7 335 336 338
264 281 285 266 258 255 249 236 193 162 167 173 169 163 167 168 166 167 167 166 172 169 164 159 155 159 165 184 191 200 226 228 130 188 161 201 175 160 142 146 146 66 14 357 4 333 348 354 342
259 272 276 265 251 255 252 237 169 150 148 150 151 158 164 163 160 165 165 164 169 170 165 155 153 162 171 182 188 183 213 211 227 250 237 241 190 141 125 121 105 48 17 315 335 325 350 1 341
251 251 252 270 265 253 251 205 133 113 128 137 146 154 158 160 157 164 165 164 168 168 162 157 155 162 172 178 177 179 185 199 220 223 269 267 324 99 119 117 114 105 315 324 322 310 319 338 314
254 257 262 269 282 280 259 176 150 131 137 140 145 148 153 155 153 165 163 164 168 167 166 164 158 163 171 171 160 160 173 197 235 196 214 280 350 128 105 122 160 203 230 318 323 314 319 320 308
245 267 267 261 275 277 271 251 176 153 150 141 134 133 138 149 153 154 159 165 165 166 164 162 159 161 163 162 173 173 178 191 199 207 245 256 22 16 98 137 257 270 252 241 261 278 271 291 309
239 243 260 280 284 278 279 282 114 127 130 131 127 129 131 139 144 149 154 152 157 157 158 158 157 160 167 173 177 176 178 183 186 198 219 226 255 275 243 252 267 262 258 276 283 290 299 292 299
254 253 255 260 258 264 273 274 106 107 128 125 119 116 121 128 134 140 145 152 162 158 159 158 161 163 170 171 174 184 182 182 192 202 206 213 225 237 232 245 272 271 261 247 262 277 291 293 295
Height
1488 1488 1489 1491 1489 1487 1485 1479 1475 1477 1479 1482 1483 1484 1488 1491 1496 1507 1506 1504 1503 1501 1500 1499 1498 1497 1496 1496 1496 1496 1496 1497 1498 1499 1500 1501 1502 1502 1503 1505 1506 1508 1510 1512 1514 1515 1517 1519 1521
1488 1489 1492 1490 1487 1492 1490 1480 1480 1480 1482 1484 1485 1488 1491 1496 1500 1504 1505 1505 1504 1503 1502 1501 1500 1499 1498 1498 1498 1498 1498 1498 1499 1500 1501 1502 1503 1504 1505 1506 1508 1510 1511 1513 1514 1516 1518 1520 1521
1489 1490 1491 1485 1484 1489 1490 1482 1482 1482 1484 1486 1489 1492 1496 1501 1504 1505 1507 1506 1506 1505 1503 1502 1502 1501 1500 1500 1500 1500 1500 1500 1501 1501 1502 1503 1504 1505 1506 1508 1509 1511 1512 1514 1515 1517 1518 1520 1522
1490 1491 1488 1484 1486 1483 1483 1482 1481 1483 1486 1487 1490 1496 1502 1505 1506 1507 1508 1508 1507 1507 1505 1504 1504 1503 1503 1502 1502 1502 1502 1502 1502 1502 1503 1504 1504 1505 1507 1509 1511 1512 1514 1515 1516 1517 1519 1520 1522
1491 1490 1486 1486 1485 1482 1481 1482 1483 1485 1488 1491 1495 1500 1506 1508 1509 1509 1510 1510 1509 1509 1507 1507 1506 1506 1505 1505 1505 1504 1504 1504 1504 1504 1504 1504 1504 1505 1508 1510 1512 1514 1514 1516 1516 1517 1518 1520 1521
1490 1486 1489 1491 1488 1482 1482 1483 1484 1487 1490 1493 1497 1502 1508 1511 1511 1511 1512 1511 1511 1511 1510 1509 1508 1508 1508 1508 1507 1507 1506 1506 1506 1506 1506 1505 1505 1506 1509 1512 1513 1515 1516 1517 1517 1518 1518 1518 1520
1489 1486 1487 1485 1487 1486 1484 1485 1487 1489 1492 1495 1498 1503 1509 1512 1513 1513 1514 1514 1514 1513 1512 1512 1511 1511 1511 1510 1510 1509 1509 1509 1509 1509 1509 1509 1509 1510 1512 1514 1515 1516 1517 1518 1518 1518 1517 1515 1517
1485 1484 1485 1484 1488 1489 1486 1487 1490 1492 1496 1498 1500 1504 1510 1513 1514 1515 1515 1515 1515 1516 1515 1515 1515 1514 1513 1513 1513 1512 1512 1512 1512 1512 1512 1512 1513 1514 1515 1516 1517 1518 1519 1519 1519 1520 1518 1517 1518
1482 1485 1489 1485 1487 1487 1486 1488 1492 1495 1498 1500 1503 1505 1510 1513 1515 1516 1516 1517 1517 1518 1518 1518 1517 1517 1517 1517 1516 1515 1515 1515 1515 1515 1515 1516 1516 1517 1518 1519 1520 1520 1521 1521 1521 1522 1522 1522 1523
1480 1487 1485 1480 1481 1483 1486 1488 1492 1494 1498 1503 1506 1510 1512 1514 1515 1516 1517 1518 1519 1519 1520 1520 1519 1520 1520 1520 1519 1518 1519 1518 1518 1518 1518 1519 1520 1521 1521 1521 1522 1522 1523 1523 1524 1525 1525 1525 1526
1479 1481 1480 1481 1482 1484 1486 1489 1491 1493 1498 1503 1507 1511 1514 1515 1516 1518 1519 1520 1520 1521 1522 1522 1521 1521 1521 1521 1521 1522 1521 1521 1521 1521 1521 1522 1522 1523 1523 1523 1524 1525 1525 1525 1526 1526 1527 1528 1529
1479 1480 1480 1482 1483 1486 1488 1490 1493 1496 1501 1505 1508 1512 1514 1516 1517 1519 1520 1521 1522 1522 1523 1523 1523 1523 1523 1523 1524 1524 1524 1524 1524 1524 1524 1524 1525 1525 1526 1526 1526 1527 1527 1528 1528 1529 1529 1530 1531
1479 1480 1481 1483 1485 1487 1489 1491 1495 1499 1503 1506 1510 1513 1515 1517 1518 1520 1521 1522 1523 1524 1524 1524 1524 1524 1525 1525 1525 1526 1526 1527 1527 1526 1527 1527 1527 1527 1528 1528 1528 1529 1530 1530 1530 1530 1531 1532 1532
1479 1480 1482 1484 1485 1487 1489 1492 1496 1500 1504 1508 1511 1513 1515 1517 1519 1521 1522 1523 1524 1525 1526 1526 1526 1526 1526 1526 1527 1528 1528 1529 1529 1529 1529 1529 1529 1529 1530 1530 1530 1531 1532 1532 1532 1532 1533 1533 1534
1480 1481 1482 1482 1483 1485 1489 1494 1495 1500 1503 1507 1510 1513 1515 1518 1519 1521 1522 1524 1525 1526 1527 1527 1527 1527 1527 1528 1528 1529 1530 1530 1530 1531 1531 1531 1531 1531 1531 1531 1532 1532 1533 1533 1533 1533 1534 1535 1535
1480 1484 1489 1483 1481 1484 1491 1502 1496 1499 1502 1506 1509 1512 1515 1518 1519 1521 1523 1524 1525 1526 1527 1528 1529 1528 1528 1529 1530 1531 1531 1532 1532 1532 1532 1532 1532 1532 1532 1533 1533 1533 1534 1534 1534 1534 1535 1535 1536
1482 1489 1490 1485 1479 1479 1484 1496 1495 1497 1499 1504 1507 1511 1514 1517 1519 1521 1522 1524 1525 1526 1527 1528 1529 1529 1530 1530 1531 1532 1532 1533 1533 1533 1534 1534 1534 1534 1534 1534 1534 1534 1534 1535 1535 1535 1535 1535 1535
1489 1484 1484 1483 1476 1476 1482 1488 1490 1493 1496 1500 1505 1508 1512 1515 1518 1520 1522 1524 1525 1526 1527 1528 1529 1530 1530 1531 1532 1533 1533 1534 1534 1534 1535 1535 1535 1535 1535 1535 1535 1535 1535 1535 1535 1535 1535 1535 1535
1477 1479 1483 1480 1473 1476 1481 1485 1488 1491 1494 1497 1501 1506 1510 1513 1517 1519 1522 1523 1525 1526 1527 1528 1529 1530 1531 1531 1532 1533 1534 1535 1535 1535 1535 1536 1536 1536 1536 1536 1536 1535 1535 1535 1535 1535 1535 1535 1535
1476 1482 1482 1476 1471 1476 1482 1485 1484 1487 1491 1494 1497 1502 1507 1511 1515 1518 1521 1523 1524 1525 1527 1528 1528 1529 1530 1531 1532 1534 1534 1535 1536 1536 1536 1536 1536 1536 1537 1536 1536 1536 1535 1535 1535 1535 1535 1535 1535
1477 1480 1480 1480 1474 1474 1482 1491 1488 1486 1488 1492 1495 1499 1503 1508 1513 1516 1519 1521 1523 1524 1526 1527 1528 1529 1530 1531 1532 1534 1535 1535 1536 1536 1536 1536 1537 1537 1536 1536 1536 1535 1536 1535 1535 1534 1534 1534 1534
1481 1472 1472 1474 1481 1486 1483 1505 1493 1485 1487 1490 1493 1497 1501 1505 1510 1514 1517 1520 1522 1523 1525 1526 1527 1528 1529 1531 1532 1533 1534 1535 1536 1536 1536 1536 1537 1536 1536 1536 1535 1535 1535 1535 1534 1534 1534 1534 1533
1475 1469 1471 1474 1480 1486 1482 1495 1494 1483 1490 1490 1491 1494 1499 1504 1507 1511 1515 1517 1520 1522 1524 1525 1526 1527 1529 1530 1531 1532 1534 1535 1535 1536 1536 1536 1536 1536 1536 1535 1535 1535 1534 1534 1534 1533 1533 1533 1533
1469 1471 1475 1476 1481 1499 1485 1491 1496 1483 1485 1486 1488 1493 1497 1501 1505 1509 1513 1516 1519 1521 1523 1524 1525 1526 1528 1529 1530 1532 1533 1534 1534 1535 1536 1536 1536 1536 1535 1535 1534 1534 1534 1533 1533 1532 1532 1532 1532
1472 1486 1504 1506 1504 1500 1477 1486 1490 1475 1476 1480 1486 1491 1495 1499 1503 1507 1510 1514 1517 1519 1521 1522 1523 1525 1526 1528 1529 1531 1532 1533 1533 1534 1535 1535 1535 1535 1535 1534 1534 1533 1533 1533 1532 1532 1531 1531 1530
1475 1483 1507 1518 1511 1498 1482 1489 1482 1471 1474 1479 1484 1489 1494 1497 1501 1505 1508 1512 1515 1517 1520 1521 1522 1524 1525 1527 1528 1530 1531 1532 1532 1533 1534 1534 1535 1534 1534 1533 1533 1532 1532 1532 1532 1531 1530 1530 1529
1478 1481 1477 1491 1493 1498 1491 1485 1477 1472 1475 1478 1482 1487 1491 1496 1500 1504 1507 1510 1513 1516 1518 1520 1521 1522 1524 1526 1527 1528 1529 1530 1531 1532 1533 1533 1533 1533 1533 1532 1532 1531 1531 1531 1530 1530 1529 1529 1528
1469 1472 1480 1493 1508 1513 1501 1493 1486 1478 1476 1478 1481 1486 1490 1495 1498 1501 1505 1509 1511 1514 1517 1519 1519 1521 1522 1524 1525 1527 1528 1529 1530 1531 1531 1532 1532 1532 1532 1531 1531 1530 1530 1530 1529 1529 1528 1528 1527
1471 1473 1479 1484 1490 1508 1514 1501 1473 1474 1474 1478 1482 1486 1490 1493 1497 1500 1505 1507 1510 1513 1515 1517 1518 1520 1521 1523 1524 1525 1526 1527 1528 1529 1530 1530 1530 1531 1530 1530 1530 1530 1529 1529 1528 1528 1527 1527 1526
1465 1471 1476 1492 1496 1495 1503 1501 1473 1474 1475 1478 1483 1487 1490 1494 1497 1500 1504 1507 1509 1512 1514 1516 1517 1519 1520 1521 1523 1524 1525 1526 1526 1527 1528 1528 1528 1529 1529 1529 1528 1528 1527 1527 1526 1526 1525 1525 1524